Погода в Плавске

Россия / Тульская область     53°42′24″N   37°17′31″E
темп.,
°C
ветер,
м/с
пор.,
м/с
влажн.,
%
обл.,
%
осадки,
мм/ч
давл.,
гПа
погр.,
м
11 мая, вт
вт1100:00+7ссв5137977 0.0 1024368
03:00+6ссв5148551 0.0 1024335
06:00+7ссв615875 0.0 1023355
09:00+12св812765 0.0 1023500
12:00+17св8106958 0.0 1023944
15:00+17всв61074100 0.1 10221072
18:00+14вюв6118890 2.3 1023465
21:00+11вюв369399 2.4 1024120
12 мая, ср
ср1200:00+8юв369195 0.0 1025119
03:00+6юв33880 0.0 102645
06:00+7в24895 0.0 1026113
09:00+12в356696 0.0 1025594
12:00+13всв5569100 0.3 10231017
15:00+9юв1189100 3.5 1021137
18:00+10ююв238330 0.3 1019324
21:00+7вюв47920 0.3 1019123
13 мая, чт
чт1300:00+7в5129399 0.0 1019251
03:00+9вюв61592100 0.0 1018448
06:00+9вюв51294100 0.0 1018411
09:00+12вюв61391100 0.6 1018696
12:00+15вюв587695 0.4 1016810
15:00+12сз1196100 3.4 101585
18:00+14ююз47823 0.9 1015816
21:00+10ююв128732 0.9 101610
14 мая, пт
пт1400:00+9юв22932 0.0 101725
03:00+8юв2290100 0.0 101723
06:00+10вюв3589100 0.0 1017101
09:00+16вюв598237 0.0 1015398
12:00+20юв7107157 0.5 1014967
15:00+20ююв7117299 1.3 1013898
18:00+20ююв6117793 2.8 1011647
21:00+16ю31292100 7.3 1011223
15 мая, сб
сб1500:00+16ю3388100 1.4 101139
03:00+15ююв61390100 2.6 1011306
06:00+14ююв41090100 0.6 1010255
09:00+18ююв51077100 0.6 1011571
12:00+21ю4671100 0.2 10101092
15:00+21ююз68653 2.8 10091312
18:00+19ююз597653 1.4 1010863
21:00+14ююз410927 1.7 1011245